Time,TemperatureF,DewpointF,PressureIn,WindDirection,WindDirectionDegrees,WindSpeedMPH,WindSpeedGustMPH,Humidity,HourlyPrecipIn,Conditions,Clouds,dailyrainin,SoftwareType,DateUTC
2013-02-04 00:06:00,42.9,42.0,30.23,East,101,0.0,1.0,96,0.00,,,0.00,weatherlink.com 1.10,2013-02-04 08:06:00,
2013-02-04 00:21:00,43.1,42.0,30.23,SE,131,0.0,0.0,96,0.00,,,0.00,weatherlink.com 1.10,2013-02-04 08:21:00,
2013-02-04 00:37:00,43.1,42.0,30.23,SE,134,0.0,0.0,96,0.00,,,0.00,weatherlink.com 1.10,2013-02-04 08:37:00,
2013-02-04 00:51:00,42.3,41.0,30.22,WSW,249,0.0,1.0,95,0.00,,,0.00,weatherlink.com 1.10,2013-02-04 08:51:00,
2013-02-04 01:08:00,41.9,41.0,30.22,WSW,248,0.0,0.0,96,0.00,,,0.00,weatherlink.com 1.10,2013-02-04 09:08:00,
2013-02-04 01:22:00,42.5,42.0,30.22,SSE,148,0.0,1.0,97,0.00,,,0.00,weatherlink.com 1.10,2013-02-04 09:22:00,
2013-02-04 01:37:00,42.6,42.0,30.23,SSE,148,0.0,0.0,96,0.00,,,0.00,weatherlink.com 1.10,2013-02-04 09:37:00,
2013-02-04 01:52:00,42.2,41.0,30.23,SSE,148,0.0,0.0,96,0.00,,,0.00,weatherlink.com 1.10,2013-02-04 09:52:00,
2013-02-04 02:07:00,41.8,41.0,30.24,SW,232,0.0,0.0,96,0.00,,,0.00,weatherlink.com 1.10,2013-02-04 10:07:00,
2013-02-04 02:22:00,41.6,41.0,30.23,ESE,107,0.0,1.0,97,0.00,,,0.00,weatherlink.com 1.10,2013-02-04 10:22:00,
2013-02-04 02:37:00,41.8,41.0,30.21,ESE,108,0.0,1.0,97,0.00,,,0.00,weatherlink.com 1.10,2013-02-04 10:37:00,
2013-02-04 02:52:00,42.2,41.0,30.21,SE,127,0.0,1.0,97,0.00,,,0.00,weatherlink.com 1.10,2013-02-04 10:52:00,
2013-02-04 03:07:00,42.4,42.0,30.22,NE,37,0.0,0.0,97,0.00,,,0.00,weatherlink.com 1.10,2013-02-04 11:07:00,
2013-02-04 03:22:00,41.7,41.0,30.22,WSW,255,0.0,2.0,96,0.00,,,0.00,weatherlink.com 1.10,2013-02-04 11:22:00,
2013-02-04 03:37:00,41.4,41.0,30.23,West,268,0.0,1.0,97,0.00,,,0.00,weatherlink.com 1.10,2013-02-04 11:37:00,
2013-02-04 03:52:00,41.2,40.0,30.22,NNE,23,0.0,2.0,97,0.00,,,0.00,weatherlink.com 1.10,2013-02-04 11:52:00,
2013-02-04 04:07:00,41.3,41.0,30.20,NNE,15,0.0,1.0,97,0.00,,,0.00,weatherlink.com 1.10,2013-02-04 12:07:00,
2013-02-04 04:22:00,41.8,41.0,30.20,NNE,16,0.0,1.0,98,0.00,,,0.00,weatherlink.com 1.10,2013-02-04 12:22:00,
2013-02-04 04:37:00,42.2,41.0,30.19,ESE,115,0.0,0.0,97,0.00,,,0.00,weatherlink.com 1.10,2013-02-04 12:37:00,
2013-02-04 04:52:00,42.0,41.0,30.19,SSW,200,0.0,1.0,97,0.00,,,0.00,weatherlink.com 1.10,2013-02-04 12:52:00,
2013-02-04 05:07:00,41.5,41.0,30.19,SSW,200,0.0,0.0,97,0.00,,,0.00,weatherlink.com 1.10,2013-02-04 13:07:00,
2013-02-04 05:22:00,41.7,41.0,30.19,ENE,72,0.0,0.0,97,0.00,,,0.00,weatherlink.com 1.10,2013-02-04 13:22:00,
2013-02-04 05:37:00,41.9,41.0,30.17,SSE,148,0.0,1.0,97,0.00,,,0.00,weatherlink.com 1.10,2013-02-04 13:37:00,
2013-02-04 05:52:00,42.3,42.0,30.19,ESE,120,0.0,1.0,97,0.00,,,0.00,weatherlink.com 1.10,2013-02-04 13:52:00,
2013-02-04 06:07:00,42.4,41.0,30.19,SE,131,0.0,0.0,96,0.00,,,0.00,weatherlink.com 1.10,2013-02-04 14:07:00,
2013-02-04 06:22:00,42.5,42.0,30.17,SE,134,2.0,3.0,96,0.00,,,0.00,weatherlink.com 1.10,2013-02-04 14:22:00,
2013-02-04 06:37:00,42.6,42.0,30.17,SSE,158,0.0,2.0,96,0.00,,,0.00,weatherlink.com 1.10,2013-02-04 14:37:00,
2013-02-04 06:52:00,42.6,42.0,30.18,SE,131,0.0,1.0,96,0.00,,,0.00,weatherlink.com 1.10,2013-02-04 14:52:00,
2013-02-04 07:07:00,42.6,42.0,30.17,SSE,148,0.0,1.0,96,0.00,,,0.00,weatherlink.com 1.10,2013-02-04 15:07:00,
2013-02-04 07:22:00,42.6,42.0,30.16,SSE,153,0.0,1.0,96,0.00,,,0.00,weatherlink.com 1.10,2013-02-04 15:22:00,
2013-02-04 07:37:00,42.7,42.0,30.17,SSW,201,0.0,1.0,96,0.00,,,0.00,weatherlink.com 1.10,2013-02-04 15:37:00,
2013-02-04 07:52:00,42.7,42.0,30.16,ESE,116,0.0,3.0,96,0.00,,,0.00,weatherlink.com 1.10,2013-02-04 15:52:00,
2013-02-04 08:07:00,43.0,42.0,30.16,SSW,213,1.0,1.0,96,0.00,,,0.00,weatherlink.com 1.10,2013-02-04 16:07:00,
2013-02-04 08:22:00,43.2,42.0,30.16,SE,134,0.0,1.0,96,0.00,,,0.00,weatherlink.com 1.10,2013-02-04 16:22:00,
2013-02-04 08:37:00,43.5,42.0,30.16,SSE,149,0.0,1.0,95,0.00,,,0.00,weatherlink.com 1.10,2013-02-04 16:37:00,
2013-02-04 08:53:00,43.5,42.0,30.16,West,261,0.0,1.0,95,0.00,,,0.00,weatherlink.com 1.10,2013-02-04 16:53:00,
2013-02-04 09:07:00,43.3,42.0,30.15,SW,214,0.0,0.0,95,0.00,,,0.00,weatherlink.com 1.10,2013-02-04 17:07:00,
2013-02-04 09:22:00,43.8,43.0,30.16,SW,231,0.0,1.0,95,0.00,,,0.00,weatherlink.com 1.10,2013-02-04 17:22:00,
2013-02-04 09:37:00,44.2,43.0,30.15,SW,224,0.0,1.0,95,0.00,,,0.00,weatherlink.com 1.10,2013-02-04 17:37:00,
2013-02-04 09:53:00,43.9,42.0,30.15,WSW,256,2.0,3.0,94,0.00,,,0.00,weatherlink.com 1.10,2013-02-04 17:53:00,
2013-02-04 10:07:00,44.0,42.0,30.16,WSW,250,1.0,3.0,94,0.00,,,0.00,weatherlink.com 1.10,2013-02-04 18:07:00,
2013-02-04 10:22:00,43.8,42.0,30.16,SSE,148,1.0,3.0,93,0.00,,,0.00,weatherlink.com 1.10,2013-02-04 18:22:00,
2013-02-04 10:37:00,44.2,42.0,30.15,WSW,238,0.0,2.0,93,0.00,,,0.00,weatherlink.com 1.10,2013-02-04 18:37:00,
2013-02-04 10:52:00,44.9,43.0,30.14,SSW,198,0.0,1.0,92,0.00,,,0.00,weatherlink.com 1.10,2013-02-04 18:52:00,
2013-02-04 11:07:00,45.7,44.0,30.14,South,191,1.0,2.0,92,0.00,,,0.00,weatherlink.com 1.10,2013-02-04 19:07:00,
2013-02-04 11:38:00,46.3,44.0,30.12,SE,143,0.0,4.0,90,0.00,,,0.00,weatherlink.com 1.10,2013-02-04 19:38:00,
2013-02-04 11:53:00,46.6,44.0,30.11,SSW,201,1.0,3.0,89,0.00,,,0.00,weatherlink.com 1.10,2013-02-04 19:53:00,
2013-02-04 12:08:00,46.9,44.0,30.11,WSW,253,0.0,3.0,89,0.00,,,0.00,weatherlink.com 1.10,2013-02-04 20:08:00,
2013-02-04 12:23:00,47.5,45.0,30.10,SE,141,1.0,3.0,90,0.00,,,0.00,weatherlink.com 1.10,2013-02-04 20:23:00,
2013-02-04 12:38:00,48.1,44.0,30.09,SW,229,0.0,3.0,87,0.00,,,0.00,weatherlink.com 1.10,2013-02-04 20:38:00,
2013-02-04 12:53:00,48.6,45.0,30.08,SE,142,2.0,4.0,87,0.00,,,0.00,weatherlink.com 1.10,2013-02-04 20:53:00,
2013-02-04 13:08:00,49.0,45.0,30.08,SW,229,2.0,5.0,85,0.00,,,0.00,weatherlink.com 1.10,2013-02-04 21:08:00,
2013-02-04 13:23:00,48.3,44.0,30.07,ESE,110,0.0,6.0,84,0.00,,,0.00,weatherlink.com 1.10,2013-02-04 21:23:00,
2013-02-04 13:38:00,47.9,43.0,30.06,SSW,210,2.0,3.0,83,0.00,,,0.00,weatherlink.com 1.10,2013-02-04 21:38:00,
2013-02-04 13:53:00,47.8,43.0,30.06,South,170,1.0,5.0,84,0.00,,,0.00,weatherlink.com 1.10,2013-02-04 21:53:00,
2013-02-04 14:08:00,48.1,44.0,30.05,South,169,1.0,3.0,85,0.00,,,0.00,weatherlink.com 1.10,2013-02-04 22:08:00,
2013-02-04 14:23:00,48.5,44.0,30.04,South,181,3.0,4.0,84,0.00,,,0.00,weatherlink.com 1.10,2013-02-04 22:23:00,
2013-02-04 14:38:00,48.6,44.0,30.03,SSE,155,1.0,3.0,84,0.00,,,0.00,weatherlink.com 1.10,2013-02-04 22:38:00,
2013-02-04 14:53:00,48.3,44.0,30.02,SSW,200,1.0,3.0,84,0.00,,,0.00,weatherlink.com 1.10,2013-02-04 22:53:00,
2013-02-04 15:08:00,48.4,44.0,30.02,ESE,122,0.0,4.0,85,0.00,,,0.00,weatherlink.com 1.10,2013-02-04 23:08:00,
2013-02-04 15:23:00,48.1,44.0,30.03,ESE,110,1.0,6.0,85,0.00,,,0.00,weatherlink.com 1.10,2013-02-04 23:23:00,
2013-02-04 15:38:00,47.7,44.0,30.03,SSE,147,2.0,4.0,86,0.00,,,0.00,weatherlink.com 1.10,2013-02-04 23:38:00,
2013-02-04 15:53:00,47.8,44.0,30.03,SSE,152,1.0,2.0,87,0.00,,,0.00,weatherlink.com 1.10,2013-02-04 23:53:00,
2013-02-04 16:08:00,47.6,44.0,30.03,ESE,110,0.0,2.0,87,0.00,,,0.00,weatherlink.com 1.10,2013-02-05 00:08:00,
2013-02-04 16:23:00,47.4,44.0,30.03,ESE,107,0.0,0.0,87,0.00,,,0.00,weatherlink.com 1.10,2013-02-05 00:23:00,
2013-02-04 16:38:00,47.1,43.0,30.02,SE,131,0.0,0.0,86,0.00,,,0.00,weatherlink.com 1.10,2013-02-05 00:38:00,
2013-02-04 16:53:00,46.7,44.0,30.01,SE,136,0.0,1.0,89,0.00,,,0.00,weatherlink.com 1.10,2013-02-05 00:53:00,
2013-02-04 17:08:00,46.5,43.0,30.01,ESE,122,0.0,1.0,88,0.00,,,0.00,weatherlink.com 1.10,2013-02-05 01:08:00,
2013-02-04 17:23:00,46.3,43.0,29.99,NNE,23,0.0,3.0,88,0.00,,,0.00,weatherlink.com 1.10,2013-02-05 01:23:00,
2013-02-04 17:39:00,46.2,43.0,30.01,ESE,119,0.0,1.0,88,0.00,,,0.00,weatherlink.com 1.10,2013-02-05 01:39:00,
2013-02-04 17:53:00,46.0,43.0,30.00,East,96,0.0,1.0,89,0.00,,,0.00,weatherlink.com 1.10,2013-02-05 01:53:00,
2013-02-04 18:08:00,45.9,43.0,29.98,East,80,0.0,1.0,89,0.00,,,0.00,weatherlink.com 1.10,2013-02-05 02:08:00,
2013-02-04 18:23:00,45.6,43.0,29.97,SE,128,0.0,1.0,89,0.00,,,0.00,weatherlink.com 1.10,2013-02-05 02:23:00,
2013-02-04 18:38:00,46.1,43.0,29.96,ESE,113,2.0,4.0,88,0.00,,,0.00,weatherlink.com 1.10,2013-02-05 02:38:00,
2013-02-04 18:53:00,46.2,43.0,29.96,SE,131,3.0,4.0,88,0.00,,,0.00,weatherlink.com 1.10,2013-02-05 02:53:00,
2013-02-04 19:09:00,46.1,43.0,29.93,East,100,2.0,4.0,89,0.00,,,0.00,weatherlink.com 1.10,2013-02-05 03:09:00,
2013-02-04 19:24:00,46.2,43.0,29.94,SSE,164,2.0,4.0,89,0.00,,,0.00,weatherlink.com 1.10,2013-02-05 03:24:00,
2013-02-04 19:39:00,46.4,43.0,29.94,NE,44,2.0,4.0,87,0.00,,,0.00,weatherlink.com 1.10,2013-02-05 03:39:00,
2013-02-04 19:54:00,46.5,43.0,29.93,SE,131,1.0,3.0,86,0.00,,,0.00,weatherlink.com 1.10,2013-02-05 03:54:00,
2013-02-04 20:10:00,46.6,43.0,29.94,ENE,64,2.0,7.0,86,0.00,,,0.00,weatherlink.com 1.10,2013-02-05 04:10:00,
2013-02-04 20:24:00,46.6,43.0,29.94,SSW,201,4.0,4.0,86,0.00,,,0.00,weatherlink.com 1.10,2013-02-05 04:24:00,
2013-02-04 20:39:00,46.4,43.0,29.94,WSW,253,0.0,4.0,87,0.00,,,0.00,weatherlink.com 1.10,2013-02-05 04:39:00,
2013-02-04 20:54:00,46.4,43.0,29.94,SE,145,1.0,5.0,87,0.00,,,0.00,weatherlink.com 1.10,2013-02-05 04:54:00,
2013-02-04 21:09:00,46.0,43.0,29.94,SE,141,1.0,4.0,88,0.00,,,0.00,weatherlink.com 1.10,2013-02-05 05:09:00,
2013-02-04 21:24:00,45.7,42.0,29.95,ESE,113,1.0,4.0,88,0.00,,,0.00,weatherlink.com 1.10,2013-02-05 05:24:00,
2013-02-04 21:39:00,45.5,42.0,29.95,ESE,118,0.0,1.0,88,0.00,,,0.00,weatherlink.com 1.10,2013-02-05 05:39:00,
2013-02-04 21:54:00,45.5,42.0,29.95,ESE,113,0.0,1.0,88,0.00,,,0.00,weatherlink.com 1.10,2013-02-05 05:54:00,
2013-02-04 22:09:00,45.2,42.0,29.94,East,97,0.0,2.0,89,0.00,,,0.00,weatherlink.com 1.10,2013-02-05 06:09:00,
2013-02-04 22:24:00,44.9,42.0,29.93,SE,135,2.0,4.0,89,0.00,,,0.00,weatherlink.com 1.10,2013-02-05 06:24:00,
2013-02-04 22:39:00,44.6,42.0,29.94,SE,127,0.0,3.0,90,0.00,,,0.00,weatherlink.com 1.10,2013-02-05 06:39:00,
2013-02-04 22:54:00,45.0,42.0,29.95,ESE,110,0.0,2.0,90,0.00,,,0.00,weatherlink.com 1.10,2013-02-05 06:54:00,
2013-02-04 23:09:00,45.3,42.0,29.94,SE,142,1.0,2.0,89,0.00,,,0.00,weatherlink.com 1.10,2013-02-05 07:09:00,
2013-02-04 23:24:00,45.4,42.0,29.93,SSW,197,1.0,3.0,89,0.00,,,0.00,weatherlink.com 1.10,2013-02-05 07:24:00,
2013-02-04 23:39:00,45.7,42.0,29.94,SE,141,0.0,6.0,88,0.00,,,0.00,weatherlink.com 1.10,2013-02-05 07:39:00,
2013-02-04 23:54:00,45.6,42.0,29.94,SE,146,2.0,4.0,88,0.00,,,0.00,weatherlink.com 1.10,2013-02-05 07:54:00,